Location: *
(50.6089°N, 2.2719°E)
Time: 13:53:25
(UTC+00:00)

SJ 16-02 - Pass Details

Date: 18 October 2019
Orbit: 607 x 616 km, 75.0° (Epoch: 19 November)

Event Time Altitude Azimuth Distance (km) Brightness Sun altitude
Rises 19:12:01 0° 341° (NNW) 2,884 5.2 -22.6°
Reaches altitude 10° 19:14:21 10° 347° (NNW) 1,974 4.2 -23.0°
Enters shadow 19:17:25 36° 19° (NNE) 970 2.2 -23.5°
